Simultaneous Nadir Overpasses (SNOs) Predictions

Prediction of SNOs between METOP-A and NPP Satellite Orbit:

Table of predicted SNOs for the next 14.0 days since TLE Epoch: 3/17/2014
Index Date (METOP-A) Time (METOP-A) Lat,Lon (METOP-A) SZA (METOP-A ) Date (NPP) Time (NPP) Lat,Lon (NPP) SZA (NPP ) Distance(km) Time Diff (sec)
1 03/18/2014 04:00:01 -73.76, -66.45 105.15 03/18/2014 03:58:54 -73.74, -69.30 105.01 88.53 67
2 03/18/2014 04:50:45 73.54, 100.37 74.64 03/18/2014 04:49:35 73.50, 98.59 74.71 56.13 70
3 03/18/2014 05:41:29 -73.44, -92.54 105.46 03/18/2014 05:40:18 -73.44, -93.96 105.37 45.27 71
4 03/18/2014 06:32:13 73.21, 74.30 74.33 03/18/2014 06:30:59 73.19, 73.91 74.34 12.70 74
5 03/18/2014 07:22:57 -73.11,-118.59 105.78 03/18/2014 07:21:42 -73.14,-118.65 105.74 3.38 75
6 03/18/2014 08:13:37 73.09, 48.69 74.19 03/18/2014 08:12:27 73.08, 48.77 74.20 2.64 70
7 03/18/2014 09:04:19 -73.09,-143.99 105.83 03/18/2014 09:03:11 -73.08,-143.91 105.82 2.59 68
8 03/18/2014 09:54:58 73.11, 23.40 74.18 03/18/2014 09:53:57 73.08, 23.40 74.17 3.51 61
9 03/18/2014 10:45:41 -73.06,-169.38 105.88 03/18/2014 10:44:41 -73.08,-169.27 105.86 3.73 60
10 03/18/2014 11:36:20 73.09, -1.99 74.13 03/18/2014 11:35:27 73.07, -1.96 74.13 1.67 53
11 03/18/2014 12:27:02 -73.09, 165.34 105.88 03/18/2014 12:26:11 -73.07, 165.36 105.89 2.16 51
12 03/18/2014 13:17:42 73.06, -27.39 74.08 03/18/2014 13:16:57 73.07, -27.32 74.10 2.16 45
13 03/18/2014 14:08:24 -73.06, 139.94 105.93 03/18/2014 14:07:41 -73.07, 140.00 105.93 1.82 43
14 03/18/2014 14:59:03 73.09, -52.67 74.08 03/18/2014 14:58:27 73.06, -52.69 74.06 2.65 36
15 03/18/2014 15:49:45 -73.09, 114.66 105.94 03/18/2014 15:49:11 -73.06, 114.64 105.96 3.34 34
16 03/18/2014 16:40:25 73.06, -78.06 74.03 03/18/2014 16:39:57 73.06, -78.05 74.03 0.53 28
17 03/18/2014 17:31:07 -73.06, 89.27 105.99 03/18/2014 17:30:41 -73.05, 89.27 105.99 1.11 26
18 03/18/2014 18:21:47 73.04,-103.46 73.98 03/18/2014 18:21:27 73.05,-103.42 74.00 2.22 20
19 03/18/2014 19:12:29 -73.04, 63.88 106.04 03/18/2014 19:12:11 -73.05, 63.91 106.03 1.55 18
20 03/18/2014 20:03:08 73.06,-128.74 73.97 03/18/2014 20:02:57 73.05,-128.78 73.96 2.07 11
21 03/18/2014 20:53:50 -73.07, 38.59 106.04 03/18/2014 20:53:41 -73.04, 38.55 106.06 2.77 9
22 03/18/2014 21:44:30 73.04,-154.13 73.92 03/18/2014 21:44:27 73.04,-154.14 73.93 0.64 3
23 03/18/2014 22:35:12 -73.04, 13.20 106.09 03/18/2014 22:35:11 -73.04, 13.18 106.09 0.55 1
24 03/18/2014 23:25:52 73.01,-179.53 73.87 03/18/2014 23:25:57 73.04,-179.51 73.90 2.82 5
25 03/19/2014 00:16:34 -73.02, -12.19 106.14 03/19/2014 00:16:41 -73.03, -12.18 106.13 2.02 7
26 03/19/2014 01:07:13 73.04, 155.19 73.87 03/19/2014 01:07:27 73.03, 155.13 73.86 2.05 14
27 03/19/2014 01:57:55 -73.04, -37.48 106.15 03/19/2014 01:58:11 -73.03, -37.54 106.16 2.59 16
28 03/19/2014 02:48:35 73.01, 129.80 73.82 03/19/2014 02:48:57 73.03, 129.77 73.83 1.82 22
29 03/19/2014 03:39:17 -73.02, -62.87 106.20 03/19/2014 03:39:41 -73.02, -62.91 106.20 1.41 24
30 03/19/2014 04:29:57 72.99, 104.40 73.77 03/19/2014 04:30:27 73.02, 104.40 73.79 3.72 30
31 03/19/2014 05:20:39 -72.99, -88.26 106.25 03/19/2014 05:21:11 -73.02, -88.27 106.23 2.91 32
32 03/19/2014 06:11:18 73.02, 79.12 73.76 03/19/2014 06:11:57 73.02, 79.04 73.76 2.64 39
33 03/19/2014 07:02:00 -73.02,-113.55 106.25 03/19/2014 07:02:41 -73.01,-113.64 106.26 2.90 41
34 03/19/2014 07:52:40 72.99, 53.73 73.71 03/19/2014 07:53:27 73.01, 53.67 73.73 3.01 47
35 03/19/2014 08:43:22 -72.99,-138.94 106.30 03/19/2014 08:44:11 -73.01,-139.00 106.30 2.53 49
36 03/19/2014 09:34:02 72.97, 28.33 73.66 03/19/2014 09:34:56 72.96, 28.42 73.64 2.93 54
37 03/19/2014 10:24:44 -72.97,-164.33 106.35 03/19/2014 10:25:40 -72.95,-164.26 106.39 3.08 56
38 03/19/2014 11:15:23 72.99, 3.05 73.66 03/19/2014 11:16:27 73.00, 2.95 73.66 3.55 64
39 03/19/2014 12:06:06 -72.94, 170.27 106.40 03/19/2014 12:07:10 -72.95, 170.38 106.42 3.47 64
40 03/19/2014 12:56:45 72.97, -22.34 73.61 03/19/2014 12:57:56 72.95, -22.31 73.57 2.41 71
41 03/19/2014 13:47:27 -72.97, 144.99 106.41 03/19/2014 13:48:40 -72.94, 145.02 106.45 3.12 73
42 03/19/2014 14:38:11
